Powrót do katalogu

STARLINK-4089

AktywnyŁącznośćVLEO
NORAD 52831·PAYLOAD·🇺🇸 United States

Wystrzelony Jun 17, 2022 z Cape Canaveral Space Force Station

Loading…

Następne Przeloty (najbliższe 24 godziny)

TLE

ŚwieżeSource: CelesTrak SupGP

Epoka: Sep 14, 2026, 21:04 UTC

1 52831C 22062B   26257.87826389  .00052647  00000+0  16930-2 0  2575
2 52831  53.1560 255.0409 0000906  62.6308 248.8738 15.31676479    16

Śledź STARLINK-4089 w czasie rzeczywistym z AllMySat

Download on the App Store